Showing default

USPWSA-DRAGOON, 64542

Orbit data source: Space-Track

USPWSA-DRAGOON, 64542 is an American payload satellite in SSO that was launched on Mon, 23 Jun 2025 UTC via an FALCON 9 launch vehicle from the Air Force Western Test Range (AFWTR). Payload-class satellites include a variety of spacecraft equipped with specific instruments for various scientific and technological missions. These include communications satellites like Starlink; space stations such as the ISS; scientific satellites like the Hubble; Earth observation satellites from companies like Planet Labs, Umbra, and HawkEye 360; GPS; miniature CubeSats for education and research; and military/defense satellites.

Loading next visibility...
Identifier
64542, 2025-135Q
Orbit
SSO
Country
Flag of USUS
Related business
Manufacturer
York Space Sys
Mission
Operational Commercial Communications
Bus & Motor
YORK, Unknown motor
Mass
~100 kg wet, ~100 kg dry
Launch date (UTC)
2025-06-23 (1 year ago)
Launch vehicle
FALCON 9
Launch site
Air Force Western Test Range (AFWTR)
Object type
Payload
Rocket body
Debris
Shape & HBR
Box + 2 Pan, 0.3 m
Radar Cross Section
0.375 m², Large (>1 m²)

Expand to show TLE details & history
Last TLE update: 13 hours ago

TLE from 13 hours ago
0 USPWSA-DRAGOON
1 64542U 25135Q   26171.32922065  .00008392  00000-0  32957-3 0  9994
2 64542  97.4706 287.4980 0003800 145.2888 214.8598 15.25951010 55401
Epoch: 2026-06-20T07:54Z
TLE epoch observation values (Epoch: 2026-06-20T07:54:04.664Z)
Latitude
-0.00008°
Longitude
-99.56683°
Altitude
493.169 km
Speed
7.617 km/s
True Right ascension
19h 09m 59s
True Declination
0° 00' 00"
Sunlit
Object was in full shadow at epoch
Visualization orbit readout
Latitude
Unknown
Longitude
Unknown
Altitude
Unknown
Speed
Unknown
Apparent Right ascension
Unknown
Apparent Declination
Unknown
Sunlit
N/A
Visualization observer readout
Local Sidereal Time
07:24:03
Azimuth
Unknown
Elevation
Unknown
Doppler factor
Unknown
Orbital elements
Apogee altitude
487.5 km
Perigee altitude
482.284 km
Semi-major axis
6,863.029 km
Eccentricity
0.00038
Inclination
97.4706°
RAAN
287.498°
Arg. of periapsis
145.2888°
True anomaly
214.83492°
Mean anomaly
214.8598°
Eccentric anomaly
214.84736°
Mean motion
3.81742 °/min
Orbital period
94.3 mins
BSTAR
0.00032957
Loading maneuver chart data...
Computing Atmospheric mass density...
Loading historical data...
Loading historical data...
Loading historical data...
Loading historical data...
Loading historical data...
Loading historical data...
Loading historical data...

Documentation

Showing up to 5 results
|